Regional Weather Roundup
Issued by NWS Burlington, VT

Home | Current Version | Previous Version | Text Only | Print | Product List | Glossary On
Versions: 1 2 3 4 5 6 7 8 9 10 11 12 13 14 15 16 17 18 19 20 21 22 23 24 25 26 27 28 29 30 31 32 33 34 35 36 37 38 39 40 41 42 43 44 45 46 47 48 49 50
000
ASUS41 KBTV 242030
RWRBTV
VERMONT REGIONAL WEATHER ROUNDUP
NATIONAL WEATHER SERVICE BURLINGTON VT
300 PM EST FRI FEB 24 2017

NOTE: "FAIR" INDICATES FEW OR NO CLOUDS BELOW 12,000 FEET WITH NO
SIGNIFICANT WEATHER AND/OR OBSTRUCTIONS TO VISIBILITY.

* THESE REPORTS ARE NOT UNDER NWS QUALITY CONTROL AND/OR DO NOT
  REPORT WEATHER SUCH AS PRECIPITATION AND FOG.

VTZ001>019-242100-
_____VERMONT_____


CITY           SKY/WX    TMP DP  RH WIND       PRES   REMARKS
BURLINGTON     CLOUDY    42  39  89 NW3       29.82S
MONTPELIER     CLOUDY    50  50 100 S5        29.84F FOG
MORRISVILLE    CLOUDY    41  41 100 CALM      29.81S FOG
ST. JOHNSBURY*   N/A     46  45  96 MISG      29.79S
LYNDONVILLE*   LGT RAIN  47  45  93 SE7       29.82S
MIDDLEBURY*    CLOUDY    46  46 100 CALM      29.80S FOG
RUTLAND*       CLOUDY    54  49  83 N8        29.80R
SPRINGFIELD    SUNNY     53  47  79 CALM      29.82F
HIGHGATE*      CLOUDY    39  38  97 N5        29.84R FOG
NEWPORT*       CLOUDY    39  36  89 N7        29.81S
BENNINGTON     LGT RAIN  72  49  44 SW16G24   29.78F
SUTTON*          N/A     43 N/A N/A MISG        N/A
ISLAND POND*     N/A     46 N/A N/A CALM        N/A
GALLUP MILLS*    N/A     37 N/A N/A MISG        N/A
UNION VILLAGE*   N/A     43 N/A N/A MISG        N/A
MT. MANSFIELD*   N/A     45 N/A N/A SW35G48     N/A

_____LAKE CHAMPLAIN_____


CITY           SKY/WX    TMP DP  RH WIND       PRES   REMARKS
BURTON ISLAND*   N/A     37  36  93 N2          N/A
COLCHESTER RF*   N/A     41  39  93 N9          N/A
DIAMOND ISL*     N/A     41  37  87 N8          N/A

$$

NYZ007-026>031-035-052-083-087-242100-
_____NORTHERN NEW YORK_____


CITY           SKY/WX    TMP DP  RH WIND       PRES   REMARKS
PLATTSBURGH    CLOUDY    43  38  82 N7        29.83R
SARANAC LAKE   CLOUDY    44  44 100 NE5       29.75S
MASSENA        CLOUDY    38  36  92 NE12      29.83S WCI  30
OGDENSBURG*    CLOUDY    38  37  96 E6        29.78F
POTSDAM*       CLOUDY    37  37 100 E7        29.78F
STARK FALLS*     N/A     45 N/A N/A N3          N/A
WATERTOWN      CLOUDY    42  40  92 NE14      29.74F
FT DRUM        CLOUDY    42  39  91 NE10      29.73F
ALBANY         MOSUNNY   73  51  46 S16G22    29.77F
GLENS FALLS    MOSUNNY   55  44  66 N7        29.79F

$$
NHZ002-005-011-242100-
_____NEW HAMPSHIRE_____


CITY           SKY/WX    TMP DP  RH WIND       PRES   REMARKS
LEBANON        MOSUNNY   51  49  92 NW3       29.82F FOG
KEENE          SUNNY     65  53  65 CALM      29.81F
MT WASHINGTON  LGT RAIN  39  39 100 W62G75      N/A  VSB 0   WCI  23
PLYMOUTH       CLOUDY    48  47  94 CALM      29.84F
WHITEFIELD     LGT RAIN  48  45  89 W5        29.81R FOG

$$

_____REGIONAL QUEBEC LOCATIONS_____


CITY           SKY/WX    TMP DP  RH WIND       PRES   REMARKS
MONTREAL       DRIZZLE   36  32  87 NE14      29.86R WCI  27
QUEBEC CITY    CLOUDY    36  30  80 SW8       29.90S WCI  29
SHERBROOKE     CLOUDY    41  39  93 N5        29.82R FOG

_____REGIONAL ONTARIO LOCATIONS_____


CITY           SKY/WX    TMP DP  RH WIND       PRES   REMARKS
OTTAWA         LGT RAIN  36  34  93 NE7       29.83R WCI  30

______KEY______
VSB  - VISIBILITY IN MILES
WCI  - WIND CHILL INDEX
HX   - HEAT INDEX
$$
NNNN




USA.gov is the U.S. government's official web portal to all federal, state and local government web resources and services.